Location: Unspecified
(50.7693°N, 0.0000°E)
Time: 06:58:58
(UTC+00:00)

Transit 2A - Pass Details

Date: 20 August 2020
Orbit: 591 x 967 km, 66.7° (Epoch: 20 September)

Event Time Altitude Azimuth Distance (km) Brightness Sun altitude
Rises 23:44:57 0° 317° (NW) 3,660 10.3 -27.1°
Reaches altitude 10° 23:47:59 10° 329° (NNW) 2,718 9.6 -27.1°
Maximum altitude 23:53:21 27° 26° (NNE) 1,748 8.3 -27.2°
Drops below altitude 10° 23:58:35 10° 83° (E) 2,638 8.8 -27.2°
Sets 00:01:28 0° 96° (E) 3,534 9.4 -27.2°
